Year,Month,Day,Hour,Minute,Value (Times are PST for temperature in C)
2016,06,16,00,00,9.20
2016,06,16,00,01,9.20
2016,06,16,00,02,9.10
2016,06,16,00,03,9.10
2016,06,16,00,04,9.10
2016,06,16,00,05,9.10
2016,06,16,00,06,9.10
2016,06,16,00,07,9.10
2016,06,16,00,08,9.00
2016,06,16,00,09,9.00
2016,06,16,00,10,8.90
2016,06,16,00,12,8.90
2016,06,16,00,13,8.90
2016,06,16,00,14,8.90
2016,06,16,00,15,8.90
2016,06,16,00,16,8.80
2016,06,16,00,17,8.80
2016,06,16,00,18,8.80
2016,06,16,00,19,8.80
2016,06,16,00,20,8.80
2016,06,16,00,21,8.80
2016,06,16,00,22,8.80
2016,06,16,00,23,8.80
2016,06,16,00,24,8.70
2016,06,16,00,25,8.70
2016,06,16,00,26,8.70
2016,06,16,00,27,8.70
2016,06,16,00,28,8.70
2016,06,16,00,29,8.70
2016,06,16,00,30,8.70
2016,06,16,00,31,8.80
2016,06,16,00,32,8.80
2016,06,16,00,33,8.80
2016,06,16,00,34,8.80
2016,06,16,00,35,8.80
2016,06,16,00,36,8.80
2016,06,16,00,37,8.80
2016,06,16,00,38,8.80
2016,06,16,00,39,8.80
2016,06,16,00,40,8.80
2016,06,16,00,41,8.80
2016,06,16,00,42,8.80
2016,06,16,00,43,8.80
2016,06,16,00,44,8.80
2016,06,16,00,46,8.80
2016,06,16,00,47,8.80
2016,06,16,00,48,8.80
2016,06,16,00,49,8.80
2016,06,16,00,50,8.80
2016,06,16,00,51,8.80
2016,06,16,00,52,8.80
2016,06,16,00,54,8.80
2016,06,16,00,55,8.80
2016,06,16,00,56,8.80
2016,06,16,00,57,8.80
2016,06,16,00,58,8.80
2016,06,16,00,59,8.80
2016,06,16,01,00,8.80
2016,06,16,01,01,8.80
2016,06,16,01,03,8.80
2016,06,16,01,04,8.70
2016,06,16,01,05,8.70
2016,06,16,01,06,8.70
2016,06,16,01,07,8.70
2016,06,16,01,08,8.70
2016,06,16,01,10,8.60
2016,06,16,01,11,8.60
2016,06,16,01,12,8.60
2016,06,16,01,13,8.60
2016,06,16,01,14,8.60
2016,06,16,01,15,8.60
2016,06,16,01,16,8.50
2016,06,16,01,17,8.50
2016,06,16,01,18,8.50
2016,06,16,01,19,8.40
2016,06,16,01,20,8.40
2016,06,16,01,21,8.40
2016,06,16,01,22,8.40
2016,06,16,01,23,8.40
2016,06,16,01,24,8.40
2016,06,16,01,25,8.40
2016,06,16,01,27,8.30
2016,06,16,01,28,8.30
2016,06,16,01,29,8.30
2016,06,16,01,30,8.30
2016,06,16,01,31,8.30
2016,06,16,01,32,8.30
2016,06,16,01,33,8.30
2016,06,16,01,34,8.20
2016,06,16,01,35,8.20
2016,06,16,01,36,8.20
2016,06,16,01,37,8.20
2016,06,16,01,38,8.20
2016,06,16,01,39,8.20
2016,06,16,01,41,8.10
2016,06,16,01,42,8.10
2016,06,16,01,43,8.10
2016,06,16,01,44,8.10
2016,06,16,01,45,8.10
2016,06,16,01,46,8.00
2016,06,16,01,47,8.00
2016,06,16,01,48,8.00
2016,06,16,01,49,7.90
2016,06,16,01,50,7.90
2016,06,16,01,51,7.90
2016,06,16,01,52,7.90
2016,06,16,01,53,7.90
2016,06,16,01,54,7.90
2016,06,16,01,55,7.90
2016,06,16,01,56,7.80
2016,06,16,01,57,7.80
2016,06,16,01,58,7.80
2016,06,16,01,59,7.80
2016,06,16,02,00,7.80
2016,06,16,02,01,7.80
2016,06,16,02,02,7.70
2016,06,16,02,03,7.70
2016,06,16,02,04,7.70
2016,06,16,02,05,7.70
2016,06,16,02,06,7.70
2016,06,16,02,07,7.70
2016,06,16,02,08,7.60
2016,06,16,02,09,7.60
2016,06,16,02,11,7.60
2016,06,16,02,12,7.60
2016,06,16,02,13,7.50
2016,06,16,02,14,7.50
2016,06,16,02,15,7.50
2016,06,16,02,16,7.40
2016,06,16,02,17,7.40
2016,06,16,02,18,7.40
2016,06,16,02,19,7.40
2016,06,16,02,20,7.40
2016,06,16,02,21,7.40
2016,06,16,02,22,7.30
2016,06,16,02,23,7.30
2016,06,16,02,24,7.30
2016,06,16,02,25,7.30
2016,06,16,02,26,7.30
2016,06,16,02,28,7.20
2016,06,16,02,29,7.20
2016,06,16,02,30,7.20
2016,06,16,02,31,7.20
2016,06,16,02,32,7.20
2016,06,16,02,33,7.20
2016,06,16,02,34,7.20
2016,06,16,02,35,7.20
2016,06,16,02,36,7.20
2016,06,16,02,37,7.20
2016,06,16,02,38,7.20
2016,06,16,02,41,7.10
2016,06,16,02,43,7.10
2016,06,16,02,44,7.10
2016,06,16,02,45,7.10
2016,06,16,02,46,7.10
2016,06,16,02,47,7.10
2016,06,16,02,48,7.10
2016,06,16,02,49,7.00
2016,06,16,02,50,7.00
2016,06,16,02,51,7.00
2016,06,16,02,52,7.00
2016,06,16,02,53,6.90
2016,06,16,02,54,6.90
2016,06,16,02,55,6.90
2016,06,16,02,56,6.90
2016,06,16,02,57,6.90
2016,06,16,02,58,6.90
2016,06,16,02,59,6.80
2016,06,16,03,00,6.90
2016,06,16,03,01,6.80
2016,06,16,03,02,6.80
2016,06,16,03,03,6.80
2016,06,16,03,04,6.80
2016,06,16,03,05,6.80
2016,06,16,03,06,6.80
2016,06,16,03,07,6.80
2016,06,16,03,08,6.80
2016,06,16,03,09,6.80
2016,06,16,03,10,6.80
2016,06,16,03,11,6.80
2016,06,16,03,12,6.80
2016,06,16,03,13,6.80
2016,06,16,03,14,6.80
2016,06,16,03,15,6.80
2016,06,16,03,16,6.80
2016,06,16,03,17,6.80
2016,06,16,03,18,6.80
2016,06,16,03,19,6.80
2016,06,16,03,20,6.80
2016,06,16,03,21,6.80
2016,06,16,03,22,6.90
2016,06,16,03,23,6.90
2016,06,16,03,24,6.90
2016,06,16,03,25,6.90
2016,06,16,03,26,6.90
2016,06,16,03,27,6.90
2016,06,16,03,28,6.90
2016,06,16,03,29,6.90
2016,06,16,03,30,7.00
2016,06,16,03,31,7.00
2016,06,16,03,32,7.00
2016,06,16,03,33,7.00
2016,06,16,03,34,7.00
2016,06,16,03,35,7.10
2016,06,16,03,36,7.10
2016,06,16,03,37,7.10
2016,06,16,03,38,7.10
2016,06,16,03,39,7.10
2016,06,16,03,40,7.10
2016,06,16,03,41,7.20
2016,06,16,03,42,7.20
2016,06,16,03,43,7.20
2016,06,16,03,44,7.20
2016,06,16,03,45,7.20
2016,06,16,03,46,7.20
2016,06,16,03,47,7.30
2016,06,16,03,48,7.30
2016,06,16,03,49,7.30
2016,06,16,03,50,7.30
2016,06,16,03,51,7.30
2016,06,16,03,52,7.40
2016,06,16,03,53,7.40
2016,06,16,03,54,7.40
2016,06,16,03,55,7.40
2016,06,16,03,56,7.50
2016,06,16,03,57,7.50
2016,06,16,03,58,7.60
2016,06,16,03,59,7.60
2016,06,16,04,00,7.60
2016,06,16,04,01,7.60
2016,06,16,04,02,7.60
2016,06,16,04,03,7.70
2016,06,16,04,04,7.70
2016,06,16,04,05,7.70
2016,06,16,04,06,7.70
2016,06,16,04,07,7.70
2016,06,16,04,08,7.70
2016,06,16,04,09,7.70
2016,06,16,04,10,7.80
2016,06,16,04,11,7.80
2016,06,16,04,12,7.80
2016,06,16,04,13,7.80
2016,06,16,04,14,7.80
2016,06,16,04,15,7.80
2016,06,16,04,16,7.80
2016,06,16,04,17,7.80
2016,06,16,04,18,7.80
2016,06,16,04,19,7.80
2016,06,16,04,20,7.80
2016,06,16,04,21,7.80
2016,06,16,04,22,7.80
2016,06,16,04,23,7.80
2016,06,16,04,24,7.80
2016,06,16,04,25,7.80
2016,06,16,04,26,7.80
2016,06,16,04,27,7.80
2016,06,16,04,28,7.80
2016,06,16,04,29,7.80
2016,06,16,04,30,7.80
2016,06,16,04,31,7.90
2016,06,16,04,33,7.90
2016,06,16,04,34,7.90
2016,06,16,04,35,7.90
2016,06,16,04,36,7.90
2016,06,16,04,37,7.90
2016,06,16,04,38,7.90
2016,06,16,04,39,7.90
2016,06,16,04,40,7.90
2016,06,16,04,41,7.90
2016,06,16,04,42,7.90
2016,06,16,04,43,7.90
2016,06,16,04,44,7.90
2016,06,16,04,45,7.90
2016,06,16,04,46,7.90
2016,06,16,04,47,7.90
2016,06,16,04,48,7.90
2016,06,16,04,49,7.90
2016,06,16,04,50,7.90
2016,06,16,04,51,7.90
2016,06,16,04,52,7.90
2016,06,16,04,53,7.90
2016,06,16,04,54,7.90
2016,06,16,04,55,7.90
2016,06,16,04,56,7.90
2016,06,16,04,57,7.90
2016,06,16,04,58,7.90
2016,06,16,04,59,7.90
2016,06,16,05,00,7.90
2016,06,16,05,01,7.90
2016,06,16,05,02,7.90
2016,06,16,05,03,7.90
2016,06,16,05,04,7.90
2016,06,16,05,05,7.90
2016,06,16,05,06,7.90
2016,06,16,05,07,7.90
2016,06,16,05,08,7.90
2016,06,16,05,09,7.90
2016,06,16,05,10,7.90
2016,06,16,05,11,8.00
2016,06,16,05,12,8.00
2016,06,16,05,13,8.00
2016,06,16,05,14,8.00
2016,06,16,05,15,8.00
2016,06,16,05,16,8.00
2016,06,16,05,17,8.10
2016,06,16,05,18,8.10
2016,06,16,05,19,8.10
2016,06,16,05,20,8.10
2016,06,16,05,21,8.10
2016,06,16,05,22,8.10
2016,06,16,05,23,8.10
2016,06,16,05,24,8.10
2016,06,16,05,25,8.10
2016,06,16,05,26,8.10
2016,06,16,05,27,8.10
2016,06,16,05,28,8.10
2016,06,16,05,29,8.20
2016,06,16,05,30,8.20
2016,06,16,05,31,8.20
2016,06,16,05,32,8.20
2016,06,16,05,33,8.20
2016,06,16,05,34,8.20
2016,06,16,05,35,8.20
2016,06,16,05,36,8.20
2016,06,16,05,37,8.20
2016,06,16,05,38,8.20
2016,06,16,05,39,8.20
2016,06,16,05,40,8.20
2016,06,16,05,41,8.20
2016,06,16,05,42,8.20
2016,06,16,05,43,8.20
2016,06,16,05,44,8.20
2016,06,16,05,45,8.20
2016,06,16,05,46,8.20
2016,06,16,05,47,8.20
2016,06,16,05,48,8.20
2016,06,16,05,49,8.30
2016,06,16,05,50,8.30
2016,06,16,05,51,8.30
2016,06,16,05,52,8.30
2016,06,16,05,53,8.30
2016,06,16,05,54,8.30
2016,06,16,05,55,8.30
2016,06,16,05,56,8.30
2016,06,16,05,57,8.30
2016,06,16,05,58,8.30
2016,06,16,05,59,8.30
2016,06,16,06,00,8.30
2016,06,16,06,01,8.40
2016,06,16,06,02,8.40
2016,06,16,06,03,8.40
2016,06,16,06,04,8.40
2016,06,16,06,05,8.40
2016,06,16,06,06,8.40
2016,06,16,06,07,8.40
2016,06,16,06,08,8.40
2016,06,16,06,09,8.40
2016,06,16,06,10,8.40
2016,06,16,06,11,8.40
2016,06,16,06,12,8.40
2016,06,16,06,13,8.40
2016,06,16,06,14,8.40
2016,06,16,06,15,8.40
2016,06,16,06,16,8.40
2016,06,16,06,17,8.40
2016,06,16,06,18,8.40
2016,06,16,06,19,8.50
2016,06,16,06,20,8.50
2016,06,16,06,21,8.50
2016,06,16,06,22,8.50
2016,06,16,06,23,8.50
2016,06,16,06,24,8.50
2016,06,16,06,25,8.60
2016,06,16,06,26,8.60
2016,06,16,06,27,8.60
2016,06,16,06,28,8.60
2016,06,16,06,29,8.60
2016,06,16,06,30,8.60
2016,06,16,06,31,8.60
2016,06,16,06,32,8.60
2016,06,16,06,33,8.60
2016,06,16,06,34,8.60
2016,06,16,06,35,8.60
2016,06,16,06,36,8.70
2016,06,16,06,37,8.70
2016,06,16,06,38,8.70
2016,06,16,06,39,8.70
2016,06,16,06,40,8.70
2016,06,16,06,41,8.70
2016,06,16,06,42,8.70
2016,06,16,06,43,8.70
2016,06,16,06,44,8.70
2016,06,16,06,45,8.80
2016,06,16,06,46,8.80
2016,06,16,06,47,8.80
2016,06,16,06,48,8.80
2016,06,16,06,49,8.80
2016,06,16,06,50,8.80
2016,06,16,06,51,8.80
2016,06,16,06,52,8.80
2016,06,16,06,53,8.80
2016,06,16,06,54,8.80
2016,06,16,06,56,8.80
2016,06,16,06,57,8.80
2016,06,16,06,58,8.80
2016,06,16,06,59,8.80
2016,06,16,07,00,8.80
2016,06,16,07,01,8.90
2016,06,16,07,02,8.90
2016,06,16,07,03,8.90
2016,06,16,07,04,8.90
2016,06,16,07,05,8.90
2016,06,16,07,06,8.90
2016,06,16,07,07,8.90
2016,06,16,07,08,8.90
2016,06,16,07,09,8.90
2016,06,16,07,10,8.90
2016,06,16,07,11,8.90
2016,06,16,07,12,9.00
2016,06,16,07,13,9.00
2016,06,16,07,14,9.00
2016,06,16,07,15,9.00
2016,06,16,07,16,9.00
2016,06,16,07,17,9.00
2016,06,16,07,18,9.00
2016,06,16,07,19,9.10
2016,06,16,07,20,9.10
2016,06,16,07,21,9.10
2016,06,16,07,22,9.10
2016,06,16,07,23,9.10
2016,06,16,07,24,9.10
2016,06,16,07,25,9.10
2016,06,16,07,27,9.10
2016,06,16,07,28,9.10
2016,06,16,07,29,9.10
2016,06,16,07,30,9.10
2016,06,16,07,31,9.10
2016,06,16,07,32,9.10
2016,06,16,07,33,9.10
2016,06,16,07,35,9.20
2016,06,16,07,36,9.20
2016,06,16,07,38,9.20
2016,06,16,07,39,9.20
2016,06,16,07,40,9.20
2016,06,16,07,41,9.20
2016,06,16,07,42,9.20
2016,06,16,07,43,9.20
2016,06,16,07,44,9.20
2016,06,16,07,45,9.20
2016,06,16,07,47,9.20
2016,06,16,07,48,9.20
2016,06,16,07,49,9.20
2016,06,16,07,50,9.20
2016,06,16,07,51,9.20
2016,06,16,07,52,9.20
2016,06,16,07,53,9.30
2016,06,16,07,54,9.30
2016,06,16,07,55,9.30
2016,06,16,07,56,9.30
2016,06,16,07,57,9.30
2016,06,16,07,58,9.30
2016,06,16,07,59,9.30
2016,06,16,08,00,9.30
2016,06,16,08,01,9.30
2016,06,16,08,02,9.30
2016,06,16,08,03,9.30
2016,06,16,08,04,9.30
2016,06,16,08,05,9.30
2016,06,16,08,06,9.30
2016,06,16,08,07,9.30
2016,06,16,08,08,9.30
2016,06,16,08,09,9.30
2016,06,16,08,10,9.30
2016,06,16,08,11,9.30
2016,06,16,08,12,9.30
2016,06,16,08,13,9.40
2016,06,16,08,14,9.40
2016,06,16,08,15,9.40
2016,06,16,08,16,9.40
2016,06,16,08,17,9.40
2016,06,16,08,18,9.40
2016,06,16,08,19,9.40
2016,06,16,08,20,9.40
2016,06,16,08,21,9.40
2016,06,16,08,22,9.40
2016,06,16,08,23,9.40
2016,06,16,08,24,9.40
2016,06,16,08,25,9.40
2016,06,16,08,26,9.40
2016,06,16,08,27,9.40
2016,06,16,08,28,9.40
2016,06,16,08,29,9.40
2016,06,16,08,30,9.50
2016,06,16,08,31,9.50
2016,06,16,08,32,9.50
2016,06,16,08,33,9.60
2016,06,16,08,34,9.60
2016,06,16,08,35,9.60
2016,06,16,08,36,9.60
2016,06,16,08,37,9.70
2016,06,16,08,38,9.70
2016,06,16,08,39,9.70
2016,06,16,08,40,9.70
2016,06,16,08,41,9.70
2016,06,16,08,42,9.70
2016,06,16,08,43,9.70
2016,06,16,08,44,9.80
2016,06,16,08,45,9.80
2016,06,16,08,46,9.80
2016,06,16,08,47,9.80
2016,06,16,08,48,9.80
2016,06,16,08,49,9.80
2016,06,16,08,50,9.80
2016,06,16,08,51,9.90
2016,06,16,08,52,9.90
2016,06,16,08,53,9.90
2016,06,16,08,54,10.00
2016,06,16,08,55,10.00
2016,06,16,08,56,10.10
2016,06,16,08,57,10.10
2016,06,16,08,58,10.10
2016,06,16,08,59,10.20
2016,06,16,09,00,10.20
2016,06,16,09,01,10.20
2016,06,16,09,02,10.20
2016,06,16,09,03,10.30
2016,06,16,09,04,10.30
2016,06,16,09,05,10.30
2016,06,16,09,06,10.30
2016,06,16,09,07,10.30
2016,06,16,09,08,10.40
2016,06,16,09,09,10.40
2016,06,16,09,10,10.40
2016,06,16,09,11,10.40
2016,06,16,09,12,10.40
2016,06,16,09,13,10.50
2016,06,16,09,14,10.50
2016,06,16,09,15,10.60
2016,06,16,09,16,10.60
2016,06,16,09,17,10.70
2016,06,16,09,18,10.70
2016,06,16,09,19,10.80
2016,06,16,09,20,10.80
2016,06,16,09,21,10.90
2016,06,16,09,22,11.10
2016,06,16,09,23,11.20
2016,06,16,09,24,11.20
2016,06,16,09,25,11.20
2016,06,16,09,26,11.30
2016,06,16,09,27,11.40
2016,06,16,09,28,11.50
2016,06,16,09,29,11.60
2016,06,16,09,30,11.60
2016,06,16,09,31,11.70
2016,06,16,09,32,11.70
2016,06,16,09,33,11.70
2016,06,16,09,35,11.70
2016,06,16,09,36,11.70
2016,06,16,09,37,11.80
2016,06,16,09,38,11.80
2016,06,16,09,39,11.80
2016,06,16,09,40,11.80
2016,06,16,09,41,11.90
2016,06,16,09,42,11.90
2016,06,16,09,43,11.90
2016,06,16,09,44,11.90
2016,06,16,09,45,12.00
2016,06,16,09,46,12.00
2016,06,16,09,47,12.00
2016,06,16,09,48,11.90
2016,06,16,09,49,11.90
2016,06,16,09,50,11.90
2016,06,16,09,51,11.90
2016,06,16,09,52,11.90
2016,06,16,09,53,11.90
2016,06,16,09,54,11.90
2016,06,16,09,55,12.00
2016,06,16,09,56,12.10
2016,06,16,09,57,12.20
2016,06,16,09,58,12.30
2016,06,16,09,59,12.30
2016,06,16,10,00,12.40
2016,06,16,10,01,12.50
2016,06,16,10,02,12.60
2016,06,16,10,03,12.70
2016,06,16,10,04,12.70
2016,06,16,10,05,12.80
2016,06,16,10,06,12.80
2016,06,16,10,07,12.90
2016,06,16,10,08,12.90
2016,06,16,10,09,13.00
2016,06,16,10,10,13.10
2016,06,16,10,11,13.20
2016,06,16,10,12,13.30
2016,06,16,10,13,13.40
2016,06,16,10,14,13.50
2016,06,16,10,15,13.60
2016,06,16,10,16,13.70
2016,06,16,10,17,13.80
2016,06,16,10,18,13.90
2016,06,16,10,19,14.00
2016,06,16,10,20,14.10
2016,06,16,10,21,14.20
2016,06,16,10,22,14.20
2016,06,16,10,23,14.30
2016,06,16,10,24,14.30
2016,06,16,10,25,14.30
2016,06,16,10,26,14.30
2016,06,16,10,27,14.20
2016,06,16,10,28,14.10
2016,06,16,10,29,14.10
2016,06,16,10,30,14.10
2016,06,16,10,31,14.10
2016,06,16,10,32,14.10
2016,06,16,10,33,14.10
2016,06,16,10,34,14.10
2016,06,16,10,35,14.10
2016,06,16,10,36,14.00
2016,06,16,10,37,14.00
2016,06,16,10,38,14.10
2016,06,16,10,39,14.10
2016,06,16,10,40,14.20
2016,06,16,10,41,14.20
2016,06,16,10,42,14.30
2016,06,16,10,43,14.30
2016,06,16,10,45,14.40
2016,06,16,10,46,14.40
2016,06,16,10,47,14.50
2016,06,16,10,48,14.60
2016,06,16,10,49,14.60
2016,06,16,10,50,14.60
2016,06,16,10,51,14.70
2016,06,16,10,52,14.70
2016,06,16,10,53,14.80
2016,06,16,10,54,14.80
2016,06,16,10,55,14.80
2016,06,16,10,56,14.90
2016,06,16,10,57,15.00
2016,06,16,10,58,15.20
2016,06,16,10,59,15.30
2016,06,16,11,00,15.40
2016,06,16,11,01,15.60
2016,06,16,11,02,15.70
2016,06,16,11,03,15.80
2016,06,16,11,04,15.80
2016,06,16,11,05,15.80
2016,06,16,11,06,15.80
2016,06,16,11,07,15.80
2016,06,16,11,08,15.80
2016,06,16,11,09,15.80
2016,06,16,11,10,15.90
2016,06,16,11,11,15.90
2016,06,16,11,12,16.00
2016,06,16,11,13,16.10
2016,06,16,11,14,16.20
2016,06,16,11,15,16.20
2016,06,16,11,16,16.30
2016,06,16,11,17,16.30
2016,06,16,11,18,16.40
2016,06,16,11,19,16.40
2016,06,16,11,20,16.40
2016,06,16,11,21,16.40
2016,06,16,11,22,16.40
2016,06,16,11,23,16.40
2016,06,16,11,24,16.40
2016,06,16,11,25,16.50
2016,06,16,11,26,16.60
2016,06,16,11,27,16.70
2016,06,16,11,28,16.70
2016,06,16,11,29,16.80
2016,06,16,11,30,16.90
2016,06,16,11,31,16.90
2016,06,16,11,32,17.00
2016,06,16,11,33,17.00
2016,06,16,11,34,17.10
2016,06,16,11,35,17.20
2016,06,16,11,36,17.20
2016,06,16,11,37,17.20
2016,06,16,11,38,17.30
2016,06,16,11,39,17.30
2016,06,16,11,40,17.30
2016,06,16,11,41,17.30
2016,06,16,11,42,17.40
2016,06,16,11,43,17.40
2016,06,16,11,44,17.60
2016,06,16,11,45,17.70
2016,06,16,11,46,17.80
2016,06,16,11,47,17.80
2016,06,16,11,48,17.90
2016,06,16,11,49,18.00
2016,06,16,11,50,18.10
2016,06,16,11,51,18.10
2016,06,16,11,52,18.10
2016,06,16,11,53,18.10
2016,06,16,11,54,18.10
2016,06,16,11,55,18.10
2016,06,16,11,56,18.00
2016,06,16,11,57,17.90
2016,06,16,11,58,17.90
2016,06,16,11,59,17.90
2016,06,16,12,00,17.90
2016,06,16,12,01,17.90
2016,06,16,12,02,18.00
2016,06,16,12,03,18.10
2016,06,16,12,04,18.10
2016,06,16,12,05,18.00
2016,06,16,12,06,17.90
2016,06,16,12,07,17.90
2016,06,16,12,08,17.80
2016,06,16,12,09,17.90
2016,06,16,12,10,17.90
2016,06,16,12,11,18.00
2016,06,16,12,12,18.10
2016,06,16,12,13,18.10
2016,06,16,12,14,18.20
2016,06,16,12,15,18.20
2016,06,16,12,16,18.30
2016,06,16,12,17,18.30
2016,06,16,12,18,18.30
2016,06,16,12,19,18.30
2016,06,16,12,20,18.30
2016,06,16,12,21,18.30
2016,06,16,12,22,18.30
2016,06,16,12,23,18.20
2016,06,16,12,24,18.30
2016,06,16,12,25,18.30
2016,06,16,12,26,18.30
2016,06,16,12,27,18.30
2016,06,16,12,28,18.40
2016,06,16,12,29,18.40
2016,06,16,12,30,18.40
2016,06,16,12,31,18.40
2016,06,16,12,32,18.40
2016,06,16,12,33,18.40
2016,06,16,12,34,18.40
2016,06,16,12,35,18.50
2016,06,16,12,36,18.60
2016,06,16,12,37,18.60
2016,06,16,12,38,18.60
2016,06,16,12,39,18.60
2016,06,16,12,40,18.70
2016,06,16,12,41,18.60
2016,06,16,12,42,18.60
2016,06,16,12,43,18.60
2016,06,16,12,44,18.60
2016,06,16,12,45,18.50
2016,06,16,12,46,18.50
2016,06,16,12,47,18.40
2016,06,16,12,48,18.40
2016,06,16,12,49,18.40
2016,06,16,12,50,18.40
2016,06,16,12,51,18.40
2016,06,16,12,52,18.40
2016,06,16,12,53,18.40
2016,06,16,12,54,18.60
2016,06,16,12,55,18.60
2016,06,16,12,56,18.60
2016,06,16,12,57,18.60
2016,06,16,12,58,18.50
2016,06,16,12,59,18.40
2016,06,16,13,00,18.40
2016,06,16,13,01,18.50
2016,06,16,13,02,18.60
2016,06,16,13,03,18.60
2016,06,16,13,04,18.60
2016,06,16,13,05,18.60
2016,06,16,13,06,18.60
2016,06,16,13,07,18.60
2016,06,16,13,08,18.60
2016,06,16,13,09,18.70
2016,06,16,13,10,18.80
2016,06,16,13,11,18.80
2016,06,16,13,12,18.90
2016,06,16,13,13,18.90
2016,06,16,13,14,18.90
2016,06,16,13,15,19.00
2016,06,16,13,16,19.00
2016,06,16,13,17,19.10
2016,06,16,13,18,19.10
2016,06,16,13,19,19.10
2016,06,16,13,20,19.10
2016,06,16,13,21,19.20
2016,06,16,13,22,19.20
2016,06,16,13,23,19.30
2016,06,16,13,24,19.30
2016,06,16,13,25,19.40
2016,06,16,13,26,19.40
2016,06,16,13,27,19.50
2016,06,16,13,28,19.60
2016,06,16,13,29,19.60
2016,06,16,13,30,19.60
2016,06,16,13,31,19.60
2016,06,16,13,32,19.50
2016,06,16,13,33,19.40
2016,06,16,13,34,19.40
2016,06,16,13,35,19.30
2016,06,16,13,36,19.30
2016,06,16,13,37,19.30
2016,06,16,13,38,19.30
2016,06,16,13,39,19.30
2016,06,16,13,40,19.30
2016,06,16,13,41,19.30
2016,06,16,13,42,19.30
2016,06,16,13,43,19.40
2016,06,16,13,44,19.40
2016,06,16,13,45,19.50
2016,06,16,13,46,19.60
2016,06,16,13,47,19.60
2016,06,16,13,48,19.40
2016,06,16,13,49,19.40
2016,06,16,13,50,19.40
2016,06,16,13,51,19.50
2016,06,16,13,52,19.50
2016,06,16,13,53,19.60
2016,06,16,13,54,19.60
2016,06,16,13,55,19.50
2016,06,16,13,56,19.50
2016,06,16,13,57,19.40
2016,06,16,13,58,19.40
2016,06,16,13,59,19.30
2016,06,16,14,00,19.30
2016,06,16,14,01,19.20
2016,06,16,14,02,19.20
2016,06,16,14,03,19.10
2016,06,16,14,04,19.10
2016,06,16,14,05,18.90
2016,06,16,14,06,18.80
2016,06,16,14,07,18.80
2016,06,16,14,08,18.70
2016,06,16,14,09,18.60
2016,06,16,14,10,18.60
2016,06,16,14,11,18.60
2016,06,16,14,12,18.50
2016,06,16,14,13,18.40
2016,06,16,14,14,18.40
2016,06,16,14,15,18.40
2016,06,16,14,16,18.30
2016,06,16,14,17,18.30
2016,06,16,14,18,18.30
2016,06,16,14,19,18.20
2016,06,16,14,20,18.20
2016,06,16,14,21,18.10
2016,06,16,14,22,18.10
2016,06,16,14,23,18.10
2016,06,16,14,24,18.10
2016,06,16,14,25,18.10
2016,06,16,14,26,18.10
2016,06,16,14,27,18.10
2016,06,16,14,28,18.10
2016,06,16,14,29,18.10
2016,06,16,14,30,18.10
2016,06,16,14,31,18.10
2016,06,16,14,32,18.10
2016,06,16,14,34,18.00
2016,06,16,14,35,18.00
2016,06,16,14,36,18.00
2016,06,16,14,37,18.00
2016,06,16,14,38,17.90
2016,06,16,14,39,17.90
2016,06,16,14,40,17.90
2016,06,16,14,42,17.80
2016,06,16,14,43,17.80
2016,06,16,14,44,17.80
2016,06,16,14,45,17.80
2016,06,16,14,46,17.80
2016,06,16,14,47,17.80
2016,06,16,14,48,17.80
2016,06,16,14,49,17.80
2016,06,16,14,50,17.80
2016,06,16,14,51,17.80
2016,06,16,14,52,17.80
2016,06,16,14,53,17.80
2016,06,16,14,54,17.80
2016,06,16,14,55,17.80
2016,06,16,14,56,17.70
2016,06,16,14,57,17.70
2016,06,16,14,58,17.70
2016,06,16,14,59,17.70
2016,06,16,15,00,17.70
2016,06,16,15,01,17.70
2016,06,16,15,02,17.70
2016,06,16,15,03,17.70
2016,06,16,15,04,17.70
2016,06,16,15,05,17.70
2016,06,16,15,07,17.70
2016,06,16,15,08,17.70
2016,06,16,15,10,17.70
2016,06,16,15,11,17.60
2016,06,16,15,12,17.60
2016,06,16,15,13,17.60
2016,06,16,15,14,17.60
2016,06,16,15,15,17.60
2016,06,16,15,16,17.60
2016,06,16,15,17,17.50
2016,06,16,15,18,17.50
2016,06,16,15,19,17.40
2016,06,16,15,20,17.30
2016,06,16,15,21,17.30
2016,06,16,15,22,17.20
2016,06,16,15,23,17.20
2016,06,16,15,24,17.20
2016,06,16,15,25,17.10
2016,06,16,15,26,17.10
2016,06,16,15,27,17.10
2016,06,16,15,28,17.00
2016,06,16,15,29,16.90
2016,06,16,15,30,16.90
2016,06,16,15,31,16.80
2016,06,16,15,32,16.80
2016,06,16,15,33,16.80
2016,06,16,15,34,16.70
2016,06,16,15,35,16.70
2016,06,16,15,36,16.70
2016,06,16,15,37,16.70
2016,06,16,15,38,16.70
2016,06,16,15,39,16.60
2016,06,16,15,40,16.70
2016,06,16,15,41,16.60
2016,06,16,15,42,16.60
2016,06,16,15,43,16.60
2016,06,16,15,44,16.60
2016,06,16,15,45,16.60
2016,06,16,15,46,16.60
2016,06,16,15,47,16.70
2016,06,16,15,48,16.70
2016,06,16,15,49,16.70
2016,06,16,15,50,16.70
2016,06,16,15,52,16.70
2016,06,16,15,53,16.70
2016,06,16,15,54,16.70
2016,06,16,15,55,16.70
2016,06,16,15,56,16.80
2016,06,16,15,57,16.70
2016,06,16,15,58,16.80
2016,06,16,15,59,16.80
2016,06,16,16,00,16.80
2016,06,16,16,01,16.80
2016,06,16,16,02,16.80
2016,06,16,16,03,16.90
2016,06,16,16,04,16.90
2016,06,16,16,05,16.90
2016,06,16,16,06,17.10
2016,06,16,16,07,17.20
2016,06,16,16,08,17.30
2016,06,16,16,09,17.40
2016,06,16,16,10,17.40
2016,06,16,16,11,17.60
2016,06,16,16,12,17.70
2016,06,16,16,13,17.70
2016,06,16,16,14,17.80
2016,06,16,16,15,17.80
2016,06,16,16,16,17.80
2016,06,16,16,17,17.80
2016,06,16,16,18,17.90
2016,06,16,16,19,17.90
2016,06,16,16,20,17.90
2016,06,16,16,21,17.90
2016,06,16,16,22,18.00
2016,06,16,16,23,18.10
2016,06,16,16,24,18.10
2016,06,16,16,25,18.00
2016,06,16,16,26,18.00
2016,06,16,16,27,18.00
2016,06,16,16,28,17.90
2016,06,16,16,29,17.90
2016,06,16,16,30,17.90
2016,06,16,16,31,17.90
2016,06,16,16,32,17.80
2016,06,16,16,33,17.80
2016,06,16,16,34,17.70
2016,06,16,16,35,17.70
2016,06,16,16,36,17.70
2016,06,16,16,37,17.70
2016,06,16,16,38,17.70
2016,06,16,16,39,17.60
2016,06,16,16,40,17.60
2016,06,16,16,41,17.60
2016,06,16,16,42,17.60
2016,06,16,16,43,17.60
2016,06,16,16,44,17.60
2016,06,16,16,45,17.50
2016,06,16,16,46,17.50
2016,06,16,16,47,17.50
2016,06,16,16,48,17.40
2016,06,16,16,49,17.40
2016,06,16,16,50,17.40
2016,06,16,16,51,17.40
2016,06,16,16,52,17.40
2016,06,16,16,53,17.40
2016,06,16,16,54,17.40
2016,06,16,16,55,17.40
2016,06,16,16,56,17.40
2016,06,16,16,57,17.40
2016,06,16,16,58,17.40
2016,06,16,16,59,17.40
2016,06,16,17,00,17.40
2016,06,16,17,01,17.40
2016,06,16,17,02,17.40
2016,06,16,17,03,17.40
2016,06,16,17,04,17.40
2016,06,16,17,05,17.40
2016,06,16,17,06,17.40
2016,06,16,17,07,17.40
2016,06,16,17,08,17.40
2016,06,16,17,09,17.40
2016,06,16,17,10,17.40
2016,06,16,17,11,17.40
2016,06,16,17,12,17.40
2016,06,16,17,14,17.40
2016,06,16,17,15,17.40
2016,06,16,17,16,17.40
2016,06,16,17,17,17.30
2016,06,16,17,19,17.30
2016,06,16,17,20,17.30
2016,06,16,17,21,17.30
2016,06,16,17,22,17.30
2016,06,16,17,23,17.30
2016,06,16,17,24,17.30
2016,06,16,17,25,17.30
2016,06,16,17,26,17.20
2016,06,16,17,27,17.20
2016,06,16,17,28,17.20
2016,06,16,17,29,17.20
2016,06,16,17,30,17.20
2016,06,16,17,31,17.10
2016,06,16,17,32,17.10
2016,06,16,17,33,17.00
2016,06,16,17,34,16.90
2016,06,16,17,35,16.90
2016,06,16,17,36,16.80
2016,06,16,17,37,16.80
2016,06,16,17,38,16.70
2016,06,16,17,39,16.60
2016,06,16,17,40,16.40
2016,06,16,17,41,16.30
2016,06,16,17,42,16.20
2016,06,16,17,43,16.10
2016,06,16,17,44,15.90
2016,06,16,17,45,15.80
2016,06,16,17,46,15.70
2016,06,16,17,47,15.50
2016,06,16,17,48,15.40
2016,06,16,17,49,15.30
2016,06,16,17,50,15.20
2016,06,16,17,51,15.10
2016,06,16,17,52,15.00
2016,06,16,17,53,14.90
2016,06,16,17,54,14.80
2016,06,16,17,55,14.80
2016,06,16,17,56,14.70
2016,06,16,17,57,14.70
2016,06,16,17,58,14.60
2016,06,16,17,59,14.60
2016,06,16,18,00,14.60
2016,06,16,18,01,14.50
2016,06,16,18,02,14.40
2016,06,16,18,03,14.40
2016,06,16,18,04,14.40
2016,06,16,18,05,14.30
2016,06,16,18,06,14.30
2016,06,16,18,07,14.30
2016,06,16,18,08,14.20